Regional Weather Roundup
Issued by NWS

Home | Current Version | Previous Version | Graphics & Text | Print | Product List | Glossary Off
Versions: 1 2 3 4 5 6 7 8 9 10 11 12 13 14 15 16 17 18 19 20 21 22 23 24 25 26 27 28 29 30 31 32 33 34 35 36 37 38 39 40 41 42 43 44 45 46 47 48 49 50

000
ASUS43 KFSD 262010
RWRSD

WEATHER ROUNDUP FOR SOUTH DAKOTA
NATIONAL WEATHER SERVICE SIOUX FALLS SD
300 PM CDT WED APR 26 2017

NOTE: "FAIR" INDICATES FEW OR NO CLOUDS BELOW 12,000 FEET WITH NO
SIGNIFICANT WEATHER AND/OR OBSTRUCTIONS TO VISIBILITY.


SDZ001>005-009-010-012>017-262100-
NORTHWEST AND NORTH CENTRAL SOUTH DAKOTA

CITY           SKY/WX    TMP DP  RH WIND       PRES   REMARKS
BUFFALO          N/A     42  27  55 N7        29.71F
FAITH            N/A     45  28  51 N14       29.75F
MOBRIDGE       PTSUNNY   44  25  47 N14       29.74F
$$

SDZ012>016-024>037-041>051-057-063-072>074-262100-
SOUTHWEST AND SOUTH CENTRAL SOUTH DAKOTA

CITY           SKY/WX    TMP DP  RH WIND       PRES   REMARKS
RAPID CTY ARPT CLOUDY    36  28  73 N9        29.78F
PIERRE         PTSUNNY   45  27  49 N17       29.73F
CUSTER         SUNNY     43  35  73 VRB7      29.67F
ELLSWORTH AFB  CLOUDY    35  27  71 NW9       29.78F WCI  28
PHILIP         CLOUDY    39  30  70 N13       29.79F
PINE RIDGE     PTSUNNY   44  32  62 N7        29.75F
SPEARFISH      CLOUDY    30  25  80 NW6       29.77F WCI  24
WINNER         CLOUDY    43  29  57 NW16G26   29.74F
$$

SDZ004>011-016>023-039-040-262100-
NORTHEAST SOUTH DAKOTA

CITY           SKY/WX    TMP DP  RH WIND       PRES   REMARKS
ABERDEEN       LGT SNOW  31  26  82 N20       29.76R VSB 3/4 WCI  19
WATERTOWN      CLOUDY    29  25  85 N20       29.68R WCI  16
BROOKINGS      CLOUDY    32  27  81 N14       29.68R WCI  22
SISSETON         N/A     30  28  92 N20       29.71R WCI  17
$$

SDZ017-020-022-023-036>040-048>070-262100-
SOUTHEAST SOUTH DAKOTA

CITY           SKY/WX    TMP DP  RH WIND       PRES   REMARKS
SIOUX FALLS    CLOUDY    37  30  75 N18G24    29.68F
HURON          CLOUDY    37  27  67 N23G29    29.74R
CHAMBERLAIN    CLOUDY    41  30  66 NW15      29.75S
MITCHELL       CLOUDY    37  29  72 NW21      29.75S
YANKTON        CLOUDY    37  28  70 NW18G24   29.71F
$$

ABBREVIATIONS USED IN REMARKS
   TC - TEMPERATURE IN CELSIUS
  WCI - WIND CHILL INDEX
   HX - HEAT INDEX
  VSB - VISIBILITY





USA.gov is the U.S. government's official web portal to all federal, state and local government web resources and services.